P/2020 V3 ( PanSTARRS )

Japanese version
Home page
Updated on July 3, 2021

---------------------------------------------------------------------

* Profile

Discovery Date November 10, 2020
Magnitude 20.6 mag
Discoverer Pan-STARRS 1 telescope (Haleakala)

* Pictures

* Orbital Elements

Epoch 2021 July 5.0 TT = JDT 2459400.5
T 2021 Feb. 8.56922 TT                                  Rudenko
q   6.2302674            (2000.0)            P               Q
n   0.04073717     Peri.  249.31803     +0.06536674     -0.99028987
a   8.3651830      Node   198.27596     +0.99730105     +0.06895395
e   0.2552145      Incl.   23.03183     +0.03343352     -0.12071177
P  24.2
From 107 observations 2020 Oct. 17-2021 Mar. 11, mean residual 0".4.

* Magnitudes Graph

        m1 = 8.5 + 5 log d + 10.0 log r

---------------------------------------------------------------------

The orbital elements are published on M.P.E.C. 2021-N06.
The magnitudes graphs are made with Comet for Windows.

---------------------------------------------------------------------

Copyright(C) Seiichi Yoshida (comet@aerith.net). All rights reserved.